Location: Iroquois Falls
(48.7680°N, 80.6732°W)
Time: 05:40:07
(UTC-04:00)

ISS - Visible Passes

Search period start: 21 October 2019 00:00
Search period end: 31 October 2019 00:00
Orbit: 411 x 421 km, 51.6° (Epoch: 21 October)

Date Brightness Start Highest point End Pass type
(mag) Time Alt. Az. Time Alt. Az. Time Alt. Az.
24 Oct -1.0 07:01:10 10° S 07:03:37 19° SE 07:06:03 10° E visible
25 Oct -0.7 06:13:49 10° SSE 06:15:14 12° SE 06:16:38 10° ESE visible
26 Oct -2.5 06:59:41 10° SW 07:02:51 39° SSE 07:06:02 10° ENE visible
27 Oct -1.8 06:12:29 16° S 06:14:21 26° SE 06:17:14 10° E visible
28 Oct -1.2 05:26:18 17° SE 05:26:18 17° SE 05:28:13 10° E visible
28 Oct -3.7 06:59:13 13° WSW 07:02:13 79° SSE 07:05:35 10° ENE visible
29 Oct -3.3 06:12:52 43° SSW 06:13:36 55° SSE 06:16:55 10° ENE visible
30 Oct -1.5 05:26:26 24° E 05:26:26 24° E 05:28:10 10° ENE visible
30 Oct -3.7 06:59:20 18° W 07:01:40 65° NNW 07:05:01 10° ENE visible
